Flag for Grenada Weather past 2 weeks in Saint George's, Grenada

Now
77 °F

Passing clouds.


Feels Like: 79 °F
Forecast: 74 / 80 °F
Wind: 7 mph from East

Location: Point Salines Airport

Current Time: Jan 29, 2015 at 8:38:18 PM

Latest Report: Jan 29, 2015 at 8:00 PM


Visibility: N/A

Pressure: 29.92 "Hg

Humidity: 79%

Dew point: 70 °F

Location of Saint George'sLocation

Historic Weather in Saint George's — Graph

°F

Saint George's temperature yesterday

Maximum temperature yesterday: 82 °F (at 9:00 AM)
Minimum temperature yesterday: 77 °F (at 3:00 AM)
Average temperature yesterday: 80 °F

Past Weeks' High & Low Weather Summary

 TemperatureHumidityPressure
High86 °F (Jan 18, 1:00 PM)100% (Jan 25, 5:00 AM)30.01 "Hg (Jan 25, 5:00 AM)
Low73 °F (Jan 19, 3:00 AM)66% (Jan 18, 4:00 PM)29.86 "Hg (Jan 20, 4:00 PM)
Average80 °F83%29.94 "Hg
* Reported Jan 14 7:00 PM — Jan 29 7:00 PM, Saint George's, Weather by CustomWeather, © 2014

Note: Actual official high and low records may vary slightly from our data, if they occured in-between our weather recording intervals... More about our weather records

Advertising

Saint George's weather history for previous 24 hours

 ConditionsComfort  
Time TempWeatherWind HumidityBarometerVisibility
7:00 PM
Jan 29
79 °FPassing clouds.9 mph79%29.92 "HgN/A
6:00 PM81 °FPassing clouds.14 mph74%29.89 "HgN/A
5:00 PM82 °FPassing clouds.15 mph70%29.89 "HgN/A
4:00 PM82 °FPassing clouds.20 mph70%29.89 "HgN/A
3:00 PM82 °FPassing clouds.20 mph70%29.89 "HgN/A
2:00 PM82 °FPassing clouds.18 mph74%29.92 "HgN/A
1:00 PM84 °FPassing clouds.16 mph70%29.92 "HgN/A
12:00 PM84 °FPassing clouds.13 mph70%29.95 "HgN/A
11:00 AM84 °FPassing clouds.18 mph70%29.98 "HgN/A
10:00 AM84 °FPassing clouds.16 mph70%29.98 "HgN/A
9:00 AM79 °FScattered clouds.13 mph79%29.98 "HgN/A
8:00 AM75 °FPartly sunny.17 mph89%29.95 "HgN/A
7:00 AM75 °FPassing clouds.16 mph89%29.92 "HgN/A
6:00 AM75 °FPassing clouds.16 mph89%29.92 "HgN/A
5:30 AM77 °FPassing clouds.13 mph83%29.89 "HgN/A
4:00 AM77 °FPassing clouds.15 mph89%29.89 "HgN/A
3:00 AM77 °FPassing clouds.13 mph89%29.89 "HgN/A
2:00 AM77 °FPassing clouds.13 mph89%29.89 "HgN/A
1:00 AM77 °FPassing clouds.18 mph89%29.92 "HgN/A
12:00 AM77 °FPassing clouds.17 mph89%29.92 "HgN/A
11:00 PM
Jan 28
77 °FPassing clouds.13 mph89%29.92 "HgN/A
10:00 PM77 °FPassing clouds.15 mph94%29.92 "HgN/A
9:00 PM77 °FPassing clouds.17 mph94%29.92 "HgN/A
8:00 PM77 °FSprinkles. Passing clouds.12 mph94%29.92 "HgN/A
Weather by CustomWeather, © 2014

See weather overviewHow to use our weather pages